Omak, WA

8:20 PM PST on February 23, 2018 (GMT -0800)
Omak

Weather History for KOMK - June, 2013

Change the Weather History Date:

Sunday, June 30, 2013

  Actual Average Record
Temperature  
Mean Temperature 78 °F 69 °F  
Max Temperature 93 °F 84 °F 103 °F (2008)
Min Temperature 63 °F 54 °F 33 °F (1949)
Degree Days  
Heating Degree Days 0 1  
Month to date heating degree days 67 70  
Since 1 June heating degree days 67 69  
Since 1 July heating degree days 6084 6342  
Cooling Degree Days 13 5  
Month to date cooling degree days 65 84  
Year to date cooling degree days 88 107  
Since 1 June cooling degree days 65 84  
Growing Degree Days 28 (Base 50)    
Moisture  
Dew Point 58 °F    
Average Humidity 55    
Maximum Humidity 84    
Minimum Humidity 26    
Precipitation  
Precipitation 0.00 in 0.03 in 0.24 in (1992)
Month to date precipitation 1.75 1.23  
Year to date precipitation 5.84 7.98  
Sea Level Pressure  
Sea Level Pressure 29.99 in    
Wind  
Wind Speed 7 mph (NW)    
Max Wind Speed 14 mph    
Max Gust Speed 17 mph    
Visibility 10 miles    
Events      
T = Trace of Precipitation, MM = Missing Value Source: NWS Daily Summary

Daily Weather History Graph

Daily Weather History Graph

Search for Another Location

Airport or City:

Trip Planner

Search our weather history database for the weather conditions in past years. The results will help you decide how hot, cold, wet, or windy it might be!

Date:

Astronomy

Jun. 30, 2013 Rise Set
Actual Time 5:00 AM PDT 9:03 PM PDT
Civil Twilight 4:18 AM PDT 9:44 PM PDT
Nautical Twilight 3:20 AM PDT 10:43 PM PDT
Astronomical Twilight 1:35 AM PDT 12:25 AM PDT
Moon 12:25 AM PDT (6/30) 2:01 PM PDT (6/30)
Length of Visible Light 17h 26m
Length of Day
16h 03m
Last Quarter, 44% of the Moon is Illuminated
Jun 30
Last Quarter
Jul 8
New
Jul 15
First Quarter
Jul 22
Full
Jul 29
Last Quarter

Hourly Weather History & Observations

Time (PDT) Temp. Heat Index Dew Point Humidity Pressure Visibility Wind Dir Wind Speed Gust Speed Precip Events Conditions
12:53 AM 66.0 °F - 60.1 °F 81% 30.00 in 10.0 mi North 6.9 mph - N/A   Clear
1:53 AM 64.9 °F - 59.0 °F 81% 30.01 in 10.0 mi NW 4.6 mph - N/A   Clear
2:53 AM 66.0 °F - 59.0 °F 78% 30.01 in 10.0 mi North 8.1 mph - N/A   Clear
3:53 AM 64.9 °F - 57.9 °F 78% 30.01 in 10.0 mi North 6.9 mph - N/A   Clear
4:53 AM 63.0 °F - 57.9 °F 84% 30.03 in 10.0 mi North 8.1 mph - N/A   Clear
5:53 AM 64.0 °F - 57.9 °F 80% 30.04 in 10.0 mi North 10.4 mph - N/A   Clear
6:53 AM 66.9 °F - 59.0 °F 76% 30.05 in 10.0 mi North 8.1 mph - N/A   Clear
7:53 AM 71.1 °F - 60.1 °F 68% 30.05 in 10.0 mi North 9.2 mph - N/A   Clear
8:53 AM 75.0 °F - 59.0 °F 57% 30.04 in 10.0 mi North 9.2 mph - N/A   Clear
9:53 AM 78.1 °F - 60.1 °F 54% 30.02 in 10.0 mi North 11.5 mph - N/A   Clear
10:53 AM 82.9 °F 83.2 °F 60.1 °F 46% 30.02 in 10.0 mi North 9.2 mph - N/A   Clear
11:53 AM 86.0 °F 85.7 °F 60.1 °F 41% 30.01 in 10.0 mi NNW 3.5 mph - N/A   Clear
12:53 PM 87.1 °F 86.5 °F 59.0 °F 39% 30.00 in 10.0 mi Variable 4.6 mph - N/A   Clear
1:53 PM 90.0 °F 88.1 °F 55.9 °F 31% 29.99 in 10.0 mi South 4.6 mph - N/A   Clear
2:53 PM 91.9 °F 90.8 °F 57.9 °F 32% 29.96 in 10.0 mi SSW 8.1 mph - N/A   Clear
3:53 PM 91.9 °F 90.6 °F 57.0 °F 31% 29.95 in 10.0 mi Variable 4.6 mph - N/A   Clear
4:53 PM 91.9 °F 90.0 °F 55.0 °F 29% 29.94 in 10.0 mi WSW 4.6 mph - N/A   Clear
5:53 PM 93.0 °F 90.6 °F 53.1 °F 26% 29.94 in 10.0 mi WSW 4.6 mph - N/A   Partly Cloudy
6:53 PM 91.0 °F 88.7 °F 54.0 °F 28% 29.93 in 10.0 mi WSW 4.6 mph - N/A   Clear
7:53 PM 89.1 °F 88.2 °F 59.0 °F 36% 29.92 in 10.0 mi Calm Calm - N/A   Clear
8:53 PM 75.9 °F - 62.1 °F 62% 29.93 in 10.0 mi NW 3.5 mph - N/A   Clear
9:53 PM 75.0 °F - 53.1 °F 46% 29.95 in 10.0 mi WNW 11.5 mph - N/A   Clear
10:53 PM 73.9 °F - 52.0 °F 46% 29.96 in 10.0 mi WNW 10.4 mph - N/A   Clear
11:53 PM 70.0 °F - 52.0 °F 53% 29.98 in 10.0 mi WNW 4.6 mph - N/A   Clear